Year,Month,Day,Hour,Minute,Value (Times are PST for temperature in C)
2009,02,10,00,00,-2.90
2009,02,10,00,01,-2.90
2009,02,10,00,02,-2.90
2009,02,10,00,03,-3.00
2009,02,10,00,04,-3.00
2009,02,10,00,05,-3.00
2009,02,10,00,06,-3.00
2009,02,10,00,07,-3.00
2009,02,10,00,08,-3.00
2009,02,10,00,09,-3.10
2009,02,10,00,10,-3.10
2009,02,10,00,11,-3.00
2009,02,10,00,12,-3.10
2009,02,10,00,13,-3.00
2009,02,10,00,14,-3.00
2009,02,10,00,15,-3.00
2009,02,10,00,16,-3.00
2009,02,10,00,17,-3.00
2009,02,10,00,18,-3.00
2009,02,10,00,19,-3.00
2009,02,10,00,20,-3.00
2009,02,10,00,21,-3.00
2009,02,10,00,22,-3.00
2009,02,10,00,23,-3.00
2009,02,10,00,24,-3.00
2009,02,10,00,25,-3.00
2009,02,10,00,26,-3.00
2009,02,10,00,27,-3.00
2009,02,10,00,28,-3.00
2009,02,10,00,29,-3.00
2009,02,10,00,30,-3.00
2009,02,10,00,31,-3.00
2009,02,10,00,32,-2.90
2009,02,10,00,33,-2.90
2009,02,10,00,34,-2.90
2009,02,10,00,35,-2.90
2009,02,10,00,36,-2.80
2009,02,10,00,37,-2.80
2009,02,10,00,38,-2.70
2009,02,10,00,39,-2.70
2009,02,10,00,40,-2.60
2009,02,10,00,41,-2.60
2009,02,10,00,42,-2.60
2009,02,10,00,43,-2.50
2009,02,10,00,44,-2.50
2009,02,10,00,45,-2.50
2009,02,10,00,46,-2.40
2009,02,10,00,47,-2.40
2009,02,10,00,48,-2.30
2009,02,10,00,49,-2.30
2009,02,10,00,50,-2.30
2009,02,10,00,51,-2.30
2009,02,10,00,52,-2.30
2009,02,10,00,53,-2.30
2009,02,10,00,54,-2.30
2009,02,10,00,55,-2.30
2009,02,10,00,56,-2.30
2009,02,10,00,57,-2.30
2009,02,10,00,58,-2.30
2009,02,10,00,59,-2.30
2009,02,10,01,00,-2.30
2009,02,10,01,01,-2.40
2009,02,10,01,02,-2.40
2009,02,10,01,03,-2.40
2009,02,10,01,04,-2.40
2009,02,10,01,05,-2.40
2009,02,10,01,06,-2.40
2009,02,10,01,07,-2.50
2009,02,10,01,08,-2.50
2009,02,10,01,09,-2.50
2009,02,10,01,10,-2.50
2009,02,10,01,11,-2.50
2009,02,10,01,12,-2.50
2009,02,10,01,13,-2.50
2009,02,10,01,14,-2.60
2009,02,10,01,15,-2.60
2009,02,10,01,16,-2.60
2009,02,10,01,17,-2.60
2009,02,10,01,18,-2.60
2009,02,10,01,19,-2.70
2009,02,10,01,20,-2.70
2009,02,10,01,21,-2.70
2009,02,10,01,22,-2.70
2009,02,10,01,23,-2.70
2009,02,10,01,24,-2.70
2009,02,10,01,25,-2.80
2009,02,10,01,26,-2.80
2009,02,10,01,27,-2.80
2009,02,10,01,28,-2.80
2009,02,10,01,29,-2.80
2009,02,10,01,30,-2.80
2009,02,10,01,31,-2.80
2009,02,10,01,32,-2.90
2009,02,10,01,33,-2.90
2009,02,10,01,34,-2.90
2009,02,10,01,35,-2.90
2009,02,10,01,36,-2.90
2009,02,10,01,37,-2.90
2009,02,10,01,38,-3.00
2009,02,10,01,39,-3.00
2009,02,10,01,40,-3.00
2009,02,10,01,41,-3.00
2009,02,10,01,42,-3.00
2009,02,10,01,43,-3.10
2009,02,10,01,44,-3.10
2009,02,10,01,45,-3.10
2009,02,10,01,46,-3.10
2009,02,10,01,47,-3.10
2009,02,10,01,48,-3.10
2009,02,10,01,49,-3.10
2009,02,10,01,50,-3.10
2009,02,10,01,51,-3.10
2009,02,10,01,52,-3.20
2009,02,10,01,53,-3.20
2009,02,10,01,54,-3.20
2009,02,10,01,55,-3.20
2009,02,10,01,56,-3.20
2009,02,10,01,57,-3.20
2009,02,10,01,58,-3.20
2009,02,10,01,59,-3.20
2009,02,10,02,00,-3.20
2009,02,10,02,01,-3.20
2009,02,10,02,02,-3.20
2009,02,10,02,03,-3.20
2009,02,10,02,04,-3.20
2009,02,10,02,05,-3.20
2009,02,10,02,06,-3.20
2009,02,10,02,07,-3.20
2009,02,10,02,08,-3.20
2009,02,10,02,09,-3.20
2009,02,10,02,10,-3.20
2009,02,10,02,11,-3.30
2009,02,10,02,12,-3.30
2009,02,10,02,13,-3.30
2009,02,10,02,14,-3.30
2009,02,10,02,15,-3.30
2009,02,10,02,16,-3.30
2009,02,10,02,17,-3.30
2009,02,10,02,18,-3.30
2009,02,10,02,19,-3.30
